Location: Dehesa de la Cepeda
(40.6574°N, 4.3013°W)
Time: 19:07:05
(UTC+00:00)

Explorer 7 - Pass Details

Date: 13 August 2021
Orbit: 484 x 676 km, 50.3° (Epoch: 17 September)

Event Time Altitude Azimuth Distance (km) Brightness Sun altitude
Exits shadow 02:48:25 20° 332° (NNW) 1,180 8.7 -25.2°
Maximum altitude 02:49:12 21° 349° (N) 1,136 8.8 -25.1°
Drops below altitude 10° 02:52:09 10° 41° (NE) 1,681 10.4 -24.7°
Sets 02:54:45 0° 58° (ENE) 2,583 11.5 -24.4°
